Flag for Germany Weather past 2 weeks in Meissen, Saxony, Germany

Now
46 °F

Partly sunny.


Feels Like: 43 °F
Forecast: 45 / 54 °F
Wind: 7 mph from West

Location: Dresden-Klotzsche

Current Time: Mar 28, 2015 at 2:20:45 PM

Latest Report: Mar 28, 2015 at 1:50 PM


Visibility: N/A

Pressure: 30.09 "Hg

Humidity: 53%

Dew point: 30 °F

Location of MeissenLocation

Historic Weather in Meissen — Graph

°F

Meissen temperature yesterday

Maximum temperature yesterday: 50 °F (at 1:20 PM)
Minimum temperature yesterday: 41 °F (at 4:20 AM)
Average temperature yesterday: 44 °F

Past Weeks' High & Low Weather Summary

 TemperatureHumidityPressure
High64 °F (Mar 25, 2:20 PM)100% (Mar 14, 12:50 AM)30.39 "Hg (Mar 14, 12:50 AM)
Low25 °F (Mar 23, 2:20 AM)26% (Mar 19, 2:50 PM)29.62 "Hg (Mar 25, 10:50 PM)
Average43 °F71%30.11 "Hg
* Reported Mar 13 1:20 PM — Mar 28 1:20 PM, Meissen, Weather by CustomWeather, © 2015

Note: Actual official high and low records may vary slightly from our data, if they occured in-between our weather recording intervals... More about our weather records

Advertising

Meissen weather history for previous 24 hours

 ConditionsComfort  
Time TempWeatherWind HumidityBarometerVisibility
1:20 PM
Sat, Mar 28
46 °FPartly sunny.8 mph57%30.09 "HgN/A
12:50 PM45 °FPartly sunny.7 mph66%30.12 "HgN/A
12:20 PM45 °FPartly sunny.7 mph66%30.12 "HgN/A
11:50 AM43 °FBroken clouds.7 mph71%30.12 "HgN/A
11:20 AM45 °FBroken clouds.9 mph66%30.12 "HgN/A
10:50 AM45 °FBroken clouds.8 mph71%30.15 "HgN/A
10:20 AM43 °FBroken clouds.9 mph76%30.15 "HgN/A
9:50 AM43 °FBroken clouds.12 mph76%30.15 "HgN/A
9:20 AM43 °FBroken clouds.10 mph76%30.15 "HgN/A
8:50 AM41 °FMore clouds than sun.10 mph81%30.15 "HgN/A
8:20 AM41 °FMore clouds than sun.9 mph81%30.15 "HgN/A
7:50 AM41 °FMore clouds than sun.8 mph81%30.15 "HgN/A
7:20 AM41 °FMostly cloudy.8 mph81%30.15 "HgN/A
6:50 AM39 °FOvercast.10 mph87%30.15 "HgN/A
6:20 AM39 °FPartly sunny.9 mph81%30.15 "HgN/A
5:50 AM39 °FPartly sunny.10 mph87%30.12 "HgN/A
5:20 AM41 °FPassing clouds.10 mph81%30.12 "HgN/A
4:20 AM41 °FPassing clouds.12 mph81%30.12 "HgN/A
3:50 AM41 °FPassing clouds.12 mph81%30.12 "HgN/A
3:20 AM41 °FPassing clouds.14 mph81%30.12 "HgN/A
2:50 AM41 °FPassing clouds.13 mph81%30.12 "HgN/A
2:20 AM41 °FPassing clouds.14 mph87%30.12 "HgN/A
1:50 AM41 °FPassing clouds.13 mph87%30.09 "HgN/A
1:20 AM41 °FPartly cloudy.13 mph87%30.09 "HgN/A
12:50 AM41 °FPassing clouds.13 mph87%30.09 "HgN/A
12:20 AM41 °FLight rain. Passing clouds.10 mph87%30.09 "HgN/A
11:50 PM
Fri, Mar 27
43 °FPassing clouds.12 mph81%30.09 "HgN/A
11:20 PM43 °FPassing clouds.10 mph81%30.09 "HgN/A
10:50 PM43 °FPassing clouds.13 mph81%30.09 "HgN/A
10:20 PM43 °FPassing clouds.9 mph81%30.07 "HgN/A
9:50 PM43 °FLight rain. Passing clouds.9 mph81%30.07 "HgN/A
9:20 PM43 °FLight rain. Passing clouds.8 mph81%30.07 "HgN/A
8:50 PM43 °FLight rain. Passing clouds.10 mph81%30.07 "HgN/A
8:20 PM45 °FLight rain. Partly cloudy.12 mph71%30.04 "HgN/A
7:50 PM45 °FPartly cloudy.10 mph71%30.04 "HgN/A
7:20 PM45 °FPassing clouds.12 mph71%30.04 "HgN/A
6:50 PM45 °FPartly cloudy.7 mph76%30.01 "HgN/A
6:20 PM45 °FBroken clouds.7 mph76%30.01 "HgN/A
5:50 PM45 °FBroken clouds.9 mph76%30.01 "HgN/A
5:20 PM45 °FBroken clouds.9 mph71%29.98 "HgN/A
4:50 PM46 °FBroken clouds.10 mph66%29.98 "HgN/A
4:20 PM45 °FSprinkles. Partly sunny.15 mph76%29.98 "HgN/A
3:50 PM48 °FBroken clouds.9 mph62%29.95 "HgN/A
3:20 PM50 °FScattered clouds.12 mph58%29.95 "HgN/A
2:50 PM46 °FBroken clouds.10 mph76%29.95 "HgN/A
2:20 PM50 °FSprinkles. Broken clouds.9 mph54%29.92 "HgN/A
Weather by CustomWeather, © 2015

See weather overviewHow to use our weather pages